When you browse on this site, cookies collect data to enhance your experience and personalize the content and advertising you see.
Visit our Privacy Policy to learn more. By continuing to use the site, you agree to this use of cookies and data.
  • In Hungary
  • List of Countries
  • For 7 days
  • Water Temperature
  • Satellite Maps
  • Weather Map
  • News
  • Weather Widgets
  • user-avatar
    Login

    Hourly Weather Marchtrenk

    Today, 22 March, Friday

    Time Temperature Precipitation Wind Pressure Humidity
    00:00 +6°C° 0 mm 1 mps 747 mmHg 65%
    01:00 +5°C° 0 mm 1 mps 747 mmHg 65%
    02:00 +5°C° 0 mm 1 mps 747 mmHg 65%
    03:00 +5°C° 0 mm 1 mps 746 mmHg 65%
    04:00 +5°C° 0 mm 1 mps 746 mmHg 65%
    05:00 +5°C° 0 mm 1 mps 746 mmHg 65%
    06:00 +5°C° 0 mm 1 mps 746 mmHg 66%
    07:00 +5°C° 0 mm 1 mps 746 mmHg 66%
    08:00 +7°C° 0 mm 2 mps 746 mmHg 60%
    09:00 +9°C° 0 mm 2 mps 746 mmHg 55%
    10:00 +13°C° 0 mm 2 mps 746 mmHg 49%
    11:00 +13°C° 0 mm 3 mps 745 mmHg 47%
    12:00 +16°C° 0 mm 3 mps 745 mmHg 46%
    13:00 +17°C° 0 mm 4 mps 745 mmHg 45%
    14:00 +17°C° 0 mm 4 mps 745 mmHg 47%
    15:00 +17°C° 0 mm 4 mps 744 mmHg 49%
    16:00 +18°C° 0 mm 4 mps 744 mmHg 50%
    17:00 +14°C° 0 mm 3 mps 744 mmHg 58%
    18:00 +12°C° 0 mm 3 mps 744 mmHg 66%
    19:00 +10°C° 0 mm 3 mps 744 mmHg 73%
    20:00 +10°C° 0 mm 2 mps 745 mmHg 75%
    21:00 +9°C° 0 mm 2 mps 745 mmHg 78%
    22:00 +9°C° 0 mm 1 mps 745 mmHg 80%
    23:00 +9°C° 0 mm 1 mps 745 mmHg 80%

    Tomorrow, 23 March, Saturday

    Time Temperature Precipitation Wind Pressure Humidity
    00:00 +8°C° 0 mm 1 mps 745 mmHg 80%
    01:00 +8°C° 0 mm 1 mps 745 mmHg 80%
    02:00 +7°C° 0 mm 1 mps 745 mmHg 80%
    03:00 +7°C° 0 mm 1 mps 744 mmHg 80%
    04:00 +7°C° 0 mm 1 mps 744 mmHg 80%
    05:00 +7°C° 0 mm 1 mps 744 mmHg 79%
    06:00 +7°C° 0 mm 1 mps 744 mmHg 78%
    07:00 +7°C° 0 mm 1 mps 744 mmHg 77%
    08:00 +9°C° 0 mm 1 mps 744 mmHg 71%
    09:00 +11°C° 0 mm 1 mps 744 mmHg 64%
    10:00 +14°C° 0 mm 1 mps 744 mmHg 57%
    11:00 +15°C° 0 mm 1 mps 743 mmHg 55%
    12:00 +16°C° 0 mm 1 mps 743 mmHg 53%
    13:00 +17°C° 0 mm 2 mps 743 mmHg 51%
    14:00 +17°C° 0 mm 2 mps 742 mmHg 51%
    15:00 +17°C° 0 mm 2 mps 742 mmHg 51%
    16:00 +18°C° 0 mm 2 mps 742 mmHg 51%
    17:00 +16°C° 0 mm 1 mps 742 mmHg 58%
    18:00 +14°C° 0 mm 1 mps 742 mmHg 65%
    19:00 +12°C° 0 mm 1 mps 742 mmHg 72%
    20:00 +11°C° 0 mm 1 mps 742 mmHg 74%
    21:00 +11°C° 0 mm 1 mps 743 mmHg 76%
    22:00 +10°C° 0 mm 1 mps 743 mmHg 78%
    23:00 +10°C° 0 mm 1 mps 743 mmHg 80%

    Day after tomorrow, 24 March, Sunday

    Time Temperature Precipitation Wind Pressure Humidity
    00:00 +9°C° 0 mm 1 mps 743 mmHg 82%
    01:00 +9°C° 0 mm 1 mps 743 mmHg 83%
    02:00 +9°C° 0 mm 1 mps 742 mmHg 84%
    03:00 +8°C° 0 mm 1 mps 742 mmHg 85%
    04:00 +8°C° 0 mm 1 mps 742 mmHg 86%
    05:00 +8°C° 0 mm 1 mps 742 mmHg 86%
    06:00 +8°C° 0 mm 1 mps 742 mmHg 85%
    07:00 +8°C° 0 mm 1 mps 742 mmHg 85%
    08:00 +10°C° 0 mm 1 mps 742 mmHg 78%
    09:00 +13°C° 0 mm 1 mps 742 mmHg 71%
    10:00 +15°C° 0 mm 1 mps 742 mmHg 65%
    11:00 +15°C° 0 mm 1 mps 742 mmHg 62%
    12:00 +16°C° 0 mm 1 mps 741 mmHg 59%
    13:00 +18°C° 0 mm 1 mps 741 mmHg 57%
    14:00 +17°C° 0.1 mm 2 mps 741 mmHg 57%
    15:00 +17°C° 0.1 mm 2 mps 741 mmHg 58%
    16:00 +17°C° 0.1 mm 2 mps 741 mmHg 59%
    17:00 +15°C° 0.2 mm 2 mps 741 mmHg 67%
    18:00 +13°C° 0.2 mm 2 mps 741 mmHg 75%
    19:00 +12°C° 0.2 mm 2 mps 742 mmHg 84%
    20:00 +10°C° 0.8 mm 2 mps 742 mmHg 85%
    21:00 +10°C° 0.8 mm 2 mps 742 mmHg 86%
    22:00 +9°C° 0.8 mm 2 mps 743 mmHg 88%
    23:00 +9°C° 0.3 mm 2 mps 743 mmHg 86%

    25 March, Monday

    Time Temperature Precipitation Wind Pressure Humidity
    00:00 +9°C° 0.3 mm 1 mps 743 mmHg 85%
    01:00 +9°C° 0.3 mm 1 mps 743 mmHg 83%
    02:00 +8°C° 0 mm 1 mps 743 mmHg 83%
    03:00 +8°C° 0 mm 1 mps 743 mmHg 82%
    04:00 +8°C° 0 mm 1 mps 743 mmHg 82%
    05:00 +7°C° 0 mm 1 mps 743 mmHg 80%
    06:00 +7°C° 0 mm 1 mps 743 mmHg 78%
    07:00 +7°C° 0 mm 1 mps 744 mmHg 75%
    08:00 +8°C° 0 mm 1 mps 744 mmHg 71%
    09:00 +9°C° 0 mm 1 mps 743 mmHg 67%
    10:00 +9°C° 0 mm 2 mps 743 mmHg 63%
    11:00 +9°C° 0 mm 3 mps 743 mmHg 59%
    12:00 +10°C° 0 mm 4 mps 743 mmHg 55%
    13:00 +10°C° 0 mm 5 mps 742 mmHg 51%
    14:00 +10°C° 0 mm 6 mps 742 mmHg 49%
    15:00 +10°C° 0 mm 6 mps 742 mmHg 48%
    16:00 +10°C° 0 mm 7 mps 742 mmHg 47%
    17:00 +8°C° 0 mm 6 mps 742 mmHg 51%
    18:00 +7°C° 0 mm 6 mps 742 mmHg 56%
    19:00 +6°C° 0 mm 5 mps 743 mmHg 60%
    20:00 +6°C° 0 mm 5 mps 743 mmHg 63%
    21:00 +6°C° 0 mm 5 mps 744 mmHg 66%
    22:00 +6°C° 0 mm 5 mps 744 mmHg 69%
    23:00 +5°C° 0.1 mm 5 mps 744 mmHg 71%

    26 March, Tuesday

    Time Temperature Precipitation Wind Pressure Humidity
    00:00 +5°C° 0.1 mm 5 mps 744 mmHg 74%
    01:00 +5°C° 0.1 mm 5 mps 744 mmHg 76%
    02:00 +3°C° 0.2 mm 5 mps 744 mmHg 79%
    03:00 +2°C° 0.2 mm 5 mps 744 mmHg 81%
    04:00 +3°C° 0.2 mm 4 mps 745 mmHg 83%
    05:00 +3°C° 0 mm 4 mps 745 mmHg 83%
    06:00 +1°C° 0 mm 4 mps 745 mmHg 83%
    07:00 +2°C° 0 mm 3 mps 746 mmHg 84%
    08:00 +3°C° 0 mm 4 mps 746 mmHg 76%
    09:00 +4°C° 0 mm 4 mps 746 mmHg 68%
    10:00 +6°C° 0 mm 4 mps 746 mmHg 60%
    11:00 +7°C° 0 mm 5 mps 746 mmHg 57%
    12:00 +7°C° 0 mm 5 mps 746 mmHg 54%
    13:00 +8°C° 0 mm 5 mps 746 mmHg 51%
    14:00 +8°C° 0 mm 5 mps 745 mmHg 52%
    15:00 +8°C° 0 mm 5 mps 745 mmHg 53%
    16:00 +8°C° 0 mm 5 mps 745 mmHg 53%
    17:00 +7°C° 0 mm 4 mps 746 mmHg 59%
    18:00 +7°C° 0 mm 3 mps 746 mmHg 64%
    19:00 +5°C° 0 mm 3 mps 746 mmHg 70%
    20:00 +4°C° 0 mm 3 mps 747 mmHg 73%
    21:00 +4°C° 0 mm 2 mps 747 mmHg 76%
    22:00 +3°C° 0 mm 2 mps 747 mmHg 80%
    23:00 +3°C° 0 mm 2 mps 747 mmHg 81%

    27 March, Wednesday

    Time Temperature Precipitation Wind Pressure Humidity
    00:00 +3°C° 0 mm 2 mps 747 mmHg 82%
    01:00 +2°C° 0 mm 2 mps 747 mmHg 83%
    02:00 +2°C° 0 mm 2 mps 747 mmHg 85%
    03:00 +3°C° 0 mm 1 mps 747 mmHg 86%
    04:00 +2°C° 0 mm 1 mps 747 mmHg 87%
    05:00 +3°C° 0 mm 1 mps 747 mmHg 85%
    06:00 +3°C° 0 mm 1 mps 747 mmHg 84%
    07:00 +3°C° 0 mm 1 mps 747 mmHg 83%
    08:00 +4°C° 0 mm 2 mps 747 mmHg 76%
    09:00 +5°C° 0 mm 3 mps 746 mmHg 69%
    10:00 +7°C° 0 mm 4 mps 746 mmHg 62%
    11:00 +8°C° 0 mm 4 mps 745 mmHg 59%
    12:00 +10°C° 0 mm 4 mps 745 mmHg 57%
    13:00 +11°C° 0 mm 4 mps 745 mmHg 54%
    14:00 +12°C° 0 mm 4 mps 744 mmHg 54%
    15:00 +12°C° 0 mm 4 mps 744 mmHg 55%
    16:00 +12°C° 0 mm 4 mps 744 mmHg 55%
    17:00 +11°C° 0 mm 4 mps 744 mmHg 60%
    18:00 +10°C° 0 mm 3 mps 745 mmHg 65%
    19:00 +8°C° 0 mm 3 mps 745 mmHg 70%
    20:00 +8°C° 0 mm 3 mps 746 mmHg 72%
    21:00 +8°C° 0 mm 3 mps 746 mmHg 74%
    22:00 +7°C° 0 mm 3 mps 747 mmHg 75%
    23:00 +7°C° 0 mm 2 mps 747 mmHg 77%
    Show more